Orbital Elements at Epoch 2454368.5 (2007-Sep-25.0) TDB
Reference: JPL 23 (heliocentric ecliptic J2000)
Element | Value | Uncertainty (1-sigma) | Units |
e | .5933898575700564 | 2.4362e-07 | |
a | 3.289763212611035 | 3.7678e-08 | au |
q | 1.337651088440562 | 7.9524e-07 | au |
i | 5.368340517589779 | 1.2583e-05 | deg |
node | 245.2488887700793 | 0.00024307 | deg |
peri | 96.85509354054687 | 0.00035041 | deg |
M | 63.93553266478553 | 3.0504e-05 | deg |
tp | 2453981.433867024363 (2006-Sep-02.93386702) | 0.00018268 | TDB |
period | 2179.44235487659 5.97 | 3.7442e-05 1.025e-07 | d yr |
n | .1651798677741971 | 2.8377e-09 | deg/d |
Q | 5.241875336781508 | 6.0035e-08 | au |
|
Additional Model Parameters
Parameter | Value | Uncertainty (1-sigma) |
A2 [EST] | -3.447969895618046E-11 | 1.584E-12 |
|
| | Orbit Determination Parameters
Additional Information
|